Regional Weather Roundup
Issued by NWS Upton, NY

Current Version | Previous Version | Text Only | Print | Product List | Glossary On
Versions: 1 2 3 4 5 6 7 8 9 10 11 12 13 14 15 16 17 18 19 20 21 22 23 24 25 26 27 28 29 30 31 32 33 34 35 36 37 38 39 40 41 42 43 44 45 46 47 48 49 50
000
ASUS41 KOKX 200705
RWROKX

REGIONAL WEATHER ROUNDUP
NATIONAL WEATHER SERVICE NEW YORK NY
200 AM EST SAT DEC 20 2014

NOTE: "FAIR" INDICATES FEW OR NO CLOUDS BELOW 12,000 FEET WITH NO
SIGNIFICANT WEATHER AND/OR OBSTRUCTIONS TO VISIBILITY.

NYZ071-072-176-178-NJZ106-104-200800-
NEW YORK CITY METRO AREA


CITY           SKY/WX    TMP DP  RH WIND       PRES   REMARKS
CENTRAL PARK   CLOUDY    32  20  61 NE8       30.21S WCI  25
LAGUARDIA APRT CLOUDY    32  22  66 N12       30.19S WCI  23
KENNEDY INTL   CLOUDY    33  21  61 N13       30.20S WCI  24
NEWARK/LIBERTY CLOUDY    32  21  64 N14G20    30.20S WCI  22
BRNX BOT. GARD   N/A    N/A N/A N/A E1        30.19F
TETERBORO      CLOUDY    32  20  61 N9        30.19S WCI  24
$$

NYZ177-179-078>081-200800-
LONG ISLAND NEW YORK

CITY           SKY/WX    TMP DP  RH WIND       PRES   REMARKS
FARMINGDALE    CLOUDY    31  21  66 N8        30.19S WCI  23
ISLIP          CLOUDY    31  22  69 N7        30.17S WCI  24
SHIRLEY        CLOUDY    32  22  66 N9        30.19S WCI  24
WESTHAMPTON    CLOUDY    32  22  66 N7        30.19S WCI  26
MONTAUK POINT    N/A     34  23  64 NW7       30.17S WCI  28
$$

NYZ052-065-067-200800-
HUDSON VALLEY

CITY           SKY/WX    TMP DP  RH WIND       PRES   REMARKS
WHITE PLAINS   CLEAR     27  19  72 N8        30.16S WCI  19
NEWBURGH       CLOUDY    28  23  80 VRB6      30.19F WCI  22
MONTGOMERY     CLOUDY    28  22  78 NE6       30.18S WCI  22
POUGHKEEPSIE   CLOUDY    30  20  66 N5        30.21S WCI  25
ALBANY         CLOUDY    26  17  68 NW8       30.24R WCI  18
$$

NJZ001-105-106-008-010-013-015-019>022-104-200800-
NEW JERSEY

CITY           SKY/WX    TMP DP  RH WIND       PRES   REMARKS
NEWARK/LIBERTY CLOUDY    32  21  64 N14G20    30.20S WCI  22
TETERBORO      CLOUDY    32  20  61 N9        30.19S WCI  24
CALDWELL       CLOUDY    31  21  66 VRB3      30.20S
MORRISTOWN     CLOUDY    34  21  60 N6        30.19S WCI  29
SOMERVILLE     CLOUDY    32  21  64 N6        30.18S WCI  26
SUSSEX         CLOUDY    29  20  69 N6        30.18S WCI  23
ANDOVER          N/A     28  20  71 N8        30.18R WCI  20
TRENTON        CLOUDY    32  21  64 N7        30.19S WCI  26
MILLVILLE      CLOUDY    22  20  92 CALM      30.20S
ATLANTIC CITY  PTCLDY    21  17  84 CALM      30.21R
WRIGHTSTOWN    CLOUDY    31  22  70 N2        30.18R
TOMS RIVER     CLOUDY    30  23  74 N5        30.20R WCI  25
BELMAR         CLOUDY    30  19  64 N7        30.19S WCI  23
$$

PAZ047>061-062-071-200800-
EASTERN PENNSYLVANIA

CITY           SKY/WX    TMP DP  RH WIND       PRES   REMARKS
PHILADELPHIA   CLOUDY    34  21  59 W3        30.22R
ALLENTOWN      CLOUDY    32  21  64 N6        30.19R WCI  26
SCRANTON       CLOUDY    29  19  66 N8        30.17S WCI  21
$$

CTZ002-004>006-009-010-012-RIZ004-006-007-MAZ004-011-015-200800-
SOUTHERN NEW ENGLAND
 IN CT

CITY           SKY/WX    TMP DP  RH WIND       PRES   REMARKS
BRADLEY INTL   PTCLDY    26  18  71 N5        30.19R WCI  20
HARTFORD       CLEAR     28  19  69 VRB5      30.20R WCI  23
DANBURY        CLOUDY    28  18  66 N12       30.19S WCI  18
WTRBRY/OXFORD  CLOUDY    27  16  63 N9G16     30.17S WCI  17
BRIDGEPORT     CLOUDY    31  22  69 N5        30.20R WCI  26
MERIDEN        CLOUDY    30  20  66 NW8       30.19R WCI  22
NEW HAVEN      CLOUDY    33  21  61 NW6       30.19S WCI  28
CHESTER        FAIR      28  23  80 N6        30.17S WCI  22
GROTON         CLEAR     26  21  81 NW6       30.18R WCI  19
WILLIMANTIC    CLEAR     25  19  78 CALM      30.18R

 IN RI

CITY           SKY/WX    TMP DP  RH WIND       PRES   REMARKS
PROVIDENCE     CLEAR     28  20  71 N7        30.18R WCI  21
BLOCK ISLAND   CLOUDY    32  19  59 N8        30.15S WCI  25
WESTERLY       CLEAR     28  21  75 NW3       30.18R

 IN MA

CITY           SKY/WX    TMP DP  RH WIND       PRES   REMARKS
BOSTON         CLEAR     28  21  75 NW10      30.18R WCI  19
WORCESTER      CLEAR     23  19  85 N6        30.12R WCI  16
WESTFIELD      CLEAR     24  18  77 N5        30.19R WCI  18
PROVINCETOWN   CLOUDY    39  28  65 N12       30.15R WCI  32
NANTUCKET      CLOUDY    37  28  70 NW13      30.13R WCI  29
$$

ANZ330-335-338-340-345-350-353-355-200800-
COASTAL MARINE OBSERVATIONS


STATION/POSITION TIME  SKY/WX   TEMP    WIND        PRES    VSBY  WAVE
                                AIR SEA DIR/SP/G                  HT/PER
                 (UTC)          (F)     (DEG/KT/KT) (MB)    (MI)  (FT/S)
NY HARB ENTRANCE 0700            34 46  350/ 10/ 14 1022.6          1/ 3
4S FIRE IS       0700               46                N/A           1/11
20S FIRE ISLAND  0600            36 49              1022.3          2/ 4
23SW MTP         0700                                 N/A           2/ 3
HUDSON CANYON    0700            39 54  340/ 14/ 17 1020.8          3/ 6
EXECUTION ROCKS  0700            32 42   10/ 12/ 16   N/A
WESTERN LI SOUND 0700            31     350/  8/ 12   N/A           0
CENTRAL LI SOUND 0600            32 44  330/ 14/ 17   N/A           1/ 2
EASTERN LI SOUND NOT AVBL
ROBBINS REEF     0700            32      30/ 10/ 13 1021.3
$$


>>>>>>>>>>>>>>>>>>>>>>>>>>>> KEY <<<<<<<<<<<<<<<<<<<<<<<<<<<
>                                                          <
>     SKY/WX - SKY CONDITION/PRESENT WEATHER               <
>     TMP    - TEMPERATURE IN FAHRENHEIT                   <
>     DP     - DEWPOINT IN FAHRENHEIT                      <
>     RH     - RELATIVE HUMIDITY IN PERCENT                <
>     WIND   - DIRECTION AND SPEED IN MPH                  <
>     PRES   - MEAN SEA LEVEL PRESSURE IN INCHES OF HG     <
>     WCI    - WIND CHILL INDEX                            <
>     VSB    - VISIBILITY IN MILES                         <
>     HX     - HEAT INDEX                                  <
>     TC     - TEMPERATURE IN CELSIUS                      <
>     VRB    - VARIABLE WIND DIRECTION                     <
>                                                          <
>>>>>>>>>>>>>>>>>>>>>>>>>>>> KEY <<<<<<<<<<<<<<<<<<<<<<<<<<<




USA.gov is the U.S. government's official web portal to all federal, state and local government web resources and services.